This is the latest recevied weather packets stored in our database for station/object K5UBE. If no packets are shown the sender has not sent any weather packets the latest 10 day(s).
| Time | Temp. | Humidity | Pressure | Rain* | Wind** | Luminosity | Snow |
|---|---|---|---|---|---|---|---|
| 1777914061 | 26.11° C | 30% | 1013.7 hPa | 0 mm | - | - | - |
| 1777913756 | 26.11° C | 31% | 1013.6 hPa | 0 mm | - | - | - |
| 1777913453 | 25.56° C | 31% | 1013.6 hPa | 0 mm | - | - | - |
| 1777913149 | 25.56° C | 32% | 1013.7 hPa | 0 mm | - | - | - |
| 1777912846 | 25° C | 33% | 1013.9 hPa | 0 mm | - | - | - |
| 1777912543 | 25° C | 33% | 1014.1 hPa | 0 mm | - | - | - |
| 1777912239 | 25° C | 32% | 1014.2 hPa | 0 mm | - | - | - |
| 1777911935 | 25° C | 33% | 1013.9 hPa | 0 mm | - | - | - |
| 1777911631 | 24.44° C | 33% | 1014.1 hPa | 0 mm | - | - | - |
| 1777911327 | 24.44° C | 33% | 1014 hPa | 0 mm | - | - | - |
| 1777911026 | 23.89° C | 34% | 1014.4 hPa | 0 mm | - | - | - |
| 1777910723 | 23.89° C | 36% | 1014 hPa | 0 mm | - | - | - |
| 1777910419 | 23.33° C | 37% | 1014.2 hPa | 0 mm | - | - | - |
| 1777910116 | 23.33° C | 37% | 1014.4 hPa | 0 mm | - | - | - |
| 1777909814 | 22.78° C | 39% | 1014.4 hPa | 0 mm | - | - | - |
| 1777909510 | 22.22° C | 41% | 1014.4 hPa | 0 mm | - | - | - |
| 1777909208 | 22.22° C | 41% | 1014.4 hPa | 0 mm | - | - | - |
| 1777908905 | 21.67° C | 42% | 1014.4 hPa | 0 mm | - | - | - |
| 1777908603 | 21.67° C | 42% | 1014.7 hPa | 0 mm | - | - | - |
| 1777908299 | 22.22° C | 43% | 1014.4 hPa | 0 mm | - | - | - |
| 1777907995 | 21.67° C | 44% | 1014.4 hPa | 0 mm | - | - | - |
| 1777907691 | 21.11° C | 46% | 1014.7 hPa | 0 mm | - | - | - |
| 1777907387 | 20.56° C | 47% | 1014.4 hPa | 0 mm | - | - | - |
| 1777907083 | 20.56° C | 47% | 1014.4 hPa | 0 mm | - | - | - |
| 1777906781 | 19.44° C | 50% | 1014.4 hPa | 0 mm | - | - | - |
* Rain latest hour (hover to see other rain measurements)
** Current wind speed in m/s (hover to see current wind gust speed)